Time,TemperatureF,DewpointF,PressureIn,WindDirection,WindDirectionDegrees,WindSpeedMPH,WindSpeedGustMPH,Humidity,HourlyPrecipIn,Conditions,Clouds,dailyrainin,SoftwareType,DateUTC
2017-02-19 00:00:00,48.6,38.5,29.61,WSW,255,0.0,8.0,68,0.00,,CLR,0.00,VWS V15.00,2017-02-19 05:00:00,
2017-02-19 00:02:00,48.6,38.5,29.61,SW,229,1.0,3.0,68,0.00,,CLR,0.00,VWS V15.00,2017-02-19 05:02:00,
2017-02-19 00:07:00,48.6,38.5,29.61,SW,234,1.0,3.0,68,0.00,,CLR,0.00,VWS V15.00,2017-02-19 05:07:00,
2017-02-19 00:12:00,48.8,38.3,29.61,SW,229,1.0,7.0,67,0.00,,CLR,0.00,VWS V15.00,2017-02-19 05:12:00,
2017-02-19 00:17:00,49.0,38.5,29.61,West,259,1.0,7.0,67,0.00,,CLR,0.00,VWS V15.00,2017-02-19 05:17:00,
2017-02-19 00:22:00,48.9,38.4,29.61,WSW,247,0.0,7.0,67,0.00,,CLR,0.00,VWS V15.00,2017-02-19 05:22:00,
2017-02-19 00:30:00,48.8,38.3,29.61,West,271,2.0,9.0,67,0.00,,CLR,0.00,VWS V15.00,2017-02-19 05:30:00,
2017-02-19 00:32:00,48.8,38.3,29.61,SSW,210,3.0,3.0,67,0.00,,CLR,0.00,VWS V15.00,2017-02-19 05:32:00,
2017-02-19 00:37:00,48.7,38.2,29.61,WSW,243,1.0,3.0,67,0.00,,CLR,0.00,VWS V15.00,2017-02-19 05:37:00,
2017-02-19 00:42:00,48.7,38.2,29.61,WSW,247,0.0,4.0,67,0.00,,,0.00,VWS V15.00,2017-02-19 05:42:00,
2017-02-19 00:47:00,48.7,38.2,29.61,SW,214,1.0,4.0,67,0.00,,,0.00,VWS V15.00,2017-02-19 05:47:00,
2017-02-19 00:52:00,48.6,38.2,29.61,SSW,209,1.0,4.0,67,0.00,,,0.00,VWS V15.00,2017-02-19 05:52:00,
2017-02-19 00:57:00,48.4,38.0,29.61,SSW,210,0.0,4.0,67,0.00,,,0.00,VWS V15.00,2017-02-19 05:57:00,
2017-02-19 01:00:00,48.2,37.8,29.61,SW,224,0.0,4.0,67,0.00,,CLR,0.00,VWS V15.00,2017-02-19 06:00:00,
2017-02-19 01:02:00,48.1,37.7,29.61,SW,224,0.0,0.0,67,0.00,,,0.00,VWS V15.00,2017-02-19 06:02:00,
2017-02-19 01:07:00,47.8,37.8,29.61,SW,233,0.0,2.0,68,0.00,,,0.00,VWS V15.00,2017-02-19 06:07:00,
2017-02-19 01:12:00,47.6,38.0,29.61,SSW,211,0.0,2.0,69,0.00,,,0.00,VWS V15.00,2017-02-19 06:12:00,
2017-02-19 01:17:00,47.1,37.5,29.61,SSW,211,0.0,2.0,69,0.00,,,0.00,VWS V15.00,2017-02-19 06:17:00,
2017-02-19 01:22:00,46.5,37.3,29.61,SSW,199,0.0,2.0,70,0.00,,,0.00,VWS V15.00,2017-02-19 06:22:00,
2017-02-19 01:27:00,45.9,37.0,29.61,South,187,0.0,2.0,71,0.00,,,0.00,VWS V15.00,2017-02-19 06:27:00,
2017-02-19 01:30:00,45.6,37.1,29.61,South,187,0.0,2.0,72,0.00,,CLR,0.00,VWS V15.00,2017-02-19 06:30:00,
2017-02-19 01:32:00,45.3,36.8,29.61,South,187,0.0,0.0,72,0.00,,,0.00,VWS V15.00,2017-02-19 06:32:00,
2017-02-19 01:37:00,44.9,36.8,29.61,South,188,0.0,2.0,73,0.00,,,0.00,VWS V15.00,2017-02-19 06:37:00,
2017-02-19 01:42:00,44.3,36.5,29.61,South,188,0.0,2.0,74,0.00,,,0.00,VWS V15.00,2017-02-19 06:42:00,
2017-02-19 01:43:00,44.2,36.5,29.61,South,188,0.0,2.0,74,0.00,,,0.00,VWS V15.00,2017-02-19 06:43:00,
2017-02-19 01:48:00,43.6,36.2,29.61,South,188,0.0,2.0,75,0.00,,,0.00,VWS V15.00,2017-02-19 06:48:00,
2017-02-19 01:53:00,43.3,36.6,29.61,South,188,0.0,2.0,77,0.00,,,0.00,VWS V15.00,2017-02-19 06:53:00,
2017-02-19 01:58:00,43.2,36.8,29.61,South,188,0.0,2.0,78,0.00,,,0.00,VWS V15.00,2017-02-19 06:58:00,
2017-02-19 02:00:00,43.1,36.4,29.61,South,188,0.0,2.0,77,0.00,,CLR,0.00,VWS V15.00,2017-02-19 07:00:00,
2017-02-19 02:03:00,43.0,36.3,29.61,South,188,0.0,0.0,77,0.00,,,0.00,VWS V15.00,2017-02-19 07:03:00,
2017-02-19 02:08:00,42.9,36.5,29.61,South,188,0.0,0.0,78,0.00,,,0.00,VWS V15.00,2017-02-19 07:08:00,
2017-02-19 02:13:00,42.8,36.4,29.62,South,188,0.0,0.0,78,0.00,,,0.00,VWS V15.00,2017-02-19 07:13:00,
2017-02-19 02:18:00,42.6,36.5,29.62,South,188,0.0,0.0,79,0.00,,,0.00,VWS V15.00,2017-02-19 07:18:00,
2017-02-19 02:23:00,42.2,35.8,29.62,South,188,0.0,0.0,78,0.00,,,0.00,VWS V15.00,2017-02-19 07:23:00,
2017-02-19 02:28:00,41.9,35.9,29.62,South,188,0.0,0.0,79,0.00,,,0.00,VWS V15.00,2017-02-19 07:28:00,
2017-02-19 02:30:00,41.8,36.1,29.62,South,188,0.0,0.0,80,0.00,,CLR,0.00,VWS V15.00,2017-02-19 07:30:00,
2017-02-19 02:33:00,41.8,36.1,29.62,South,188,0.0,0.0,80,0.00,,,0.00,VWS V15.00,2017-02-19 07:33:00,
2017-02-19 02:38:00,41.7,36.0,29.62,South,188,0.0,0.0,80,0.00,,,0.00,VWS V15.00,2017-02-19 07:38:00,
2017-02-19 02:43:00,41.5,36.1,29.62,South,188,0.0,0.0,81,0.00,,,0.00,VWS V15.00,2017-02-19 07:43:00,
2017-02-19 02:48:00,41.0,35.3,29.63,South,188,0.0,0.0,80,0.00,,,0.00,VWS V15.00,2017-02-19 07:48:00,
2017-02-19 02:53:00,40.8,35.4,29.63,South,188,0.0,0.0,81,0.00,,,0.00,VWS V15.00,2017-02-19 07:53:00,
2017-02-19 02:58:00,40.4,35.3,29.63,South,188,0.0,0.0,82,0.00,,,0.00,VWS V15.00,2017-02-19 07:58:00,
2017-02-19 03:00:00,40.4,35.3,29.63,South,188,0.0,0.0,82,0.00,,CLR,0.00,VWS V15.00,2017-02-19 08:00:00,
2017-02-19 03:03:00,40.3,35.2,29.63,South,188,0.0,0.0,82,0.00,,,0.00,VWS V15.00,2017-02-19 08:03:00,
2017-02-19 03:08:00,40.0,35.3,29.63,South,188,0.0,0.0,83,0.00,,,0.00,VWS V15.00,2017-02-19 08:08:00,
2017-02-19 03:13:00,39.7,35.0,29.63,South,188,0.0,0.0,83,0.00,,,0.00,VWS V15.00,2017-02-19 08:13:00,
2017-02-19 03:18:00,39.8,35.4,29.63,South,188,0.0,0.0,84,0.00,,,0.00,VWS V15.00,2017-02-19 08:18:00,
2017-02-19 03:23:00,39.7,35.3,29.64,South,188,0.0,0.0,84,0.00,,,0.00,VWS V15.00,2017-02-19 08:23:00,
2017-02-19 03:28:00,39.5,35.1,29.64,South,188,0.0,0.0,84,0.00,,,0.00,VWS V15.00,2017-02-19 08:28:00,
2017-02-19 03:30:00,39.5,35.1,29.64,South,188,0.0,0.0,84,0.00,,CLR,0.00,VWS V15.00,2017-02-19 08:30:00,
2017-02-19 03:33:00,39.6,35.2,29.64,South,188,0.0,0.0,84,0.00,,,0.00,VWS V15.00,2017-02-19 08:33:00,
2017-02-19 03:38:00,39.6,35.2,29.65,South,188,0.0,0.0,84,0.00,,,0.00,VWS V15.00,2017-02-19 08:38:00,
2017-02-19 03:43:00,39.6,35.2,29.65,South,188,0.0,0.0,84,0.00,,,0.00,VWS V15.00,2017-02-19 08:43:00,
2017-02-19 03:48:00,39.6,35.2,29.65,South,188,0.0,0.0,84,0.00,,,0.00,VWS V15.00,2017-02-19 08:48:00,
2017-02-19 03:53:00,39.6,35.5,29.65,South,188,0.0,0.0,85,0.00,,,0.00,VWS V15.00,2017-02-19 08:53:00,
2017-02-19 03:58:00,40.1,35.7,29.65,South,188,0.0,0.0,84,0.00,,,0.00,VWS V15.00,2017-02-19 08:58:00,
2017-02-19 04:00:00,40.1,35.7,29.65,South,188,0.0,0.0,84,0.00,,CLR,0.00,VWS V15.00,2017-02-19 09:00:00,
2017-02-19 04:03:00,40.2,35.8,29.65,South,188,0.0,0.0,84,0.00,,,0.00,VWS V15.00,2017-02-19 09:03:00,
2017-02-19 04:08:00,40.4,35.7,29.66,South,188,0.0,0.0,83,0.00,,,0.00,VWS V15.00,2017-02-19 09:08:00,
2017-02-19 04:13:00,41.0,36.2,29.66,South,188,0.0,0.0,83,0.00,,,0.00,VWS V15.00,2017-02-19 09:13:00,
2017-02-19 04:18:00,41.7,36.3,29.66,South,188,0.0,0.0,81,0.00,,,0.00,VWS V15.00,2017-02-19 09:18:00,
2017-02-19 04:23:00,42.4,36.7,29.66,South,188,0.0,0.0,80,0.00,,,0.00,VWS V15.00,2017-02-19 09:23:00,
2017-02-19 04:28:00,43.5,36.8,29.66,SSW,192,0.0,0.0,77,0.00,,,0.00,VWS V15.00,2017-02-19 09:28:00,
2017-02-19 04:30:00,43.9,36.5,29.66,WSW,247,1.0,2.0,75,0.00,,CLR,0.00,VWS V15.00,2017-02-19 09:30:00,
2017-02-19 04:33:00,44.5,36.7,29.66,West,261,0.0,4.0,74,0.00,,,0.00,VWS V15.00,2017-02-19 09:33:00,
2017-02-19 04:38:00,45.1,36.6,29.67,WSW,255,0.0,4.0,72,0.00,,,0.00,VWS V15.00,2017-02-19 09:38:00,
2017-02-19 04:43:00,45.8,36.6,29.67,WSW,248,0.0,4.0,70,0.00,,,0.00,VWS V15.00,2017-02-19 09:43:00,
2017-02-19 04:48:00,46.3,36.7,29.67,WSW,257,0.0,4.0,69,0.00,,,0.00,VWS V15.00,2017-02-19 09:48:00,
2017-02-19 04:53:00,46.6,36.6,29.67,WSW,257,0.0,4.0,68,0.00,,,0.00,VWS V15.00,2017-02-19 09:53:00,
2017-02-19 04:58:00,46.9,36.9,29.67,WSW,256,0.0,4.0,68,0.00,,,0.00,VWS V15.00,2017-02-19 09:58:00,
2017-02-19 05:00:00,47.1,36.7,29.68,WSW,256,0.0,4.0,67,0.00,,CLR,0.00,VWS V15.00,2017-02-19 10:00:00,
2017-02-19 05:03:00,47.2,36.8,29.68,WSW,257,0.0,1.0,67,0.00,,,0.00,VWS V15.00,2017-02-19 10:03:00,
2017-02-19 05:08:00,47.3,36.5,29.68,WSW,255,0.0,3.0,66,0.00,,,0.00,VWS V15.00,2017-02-19 10:08:00,
2017-02-19 05:13:00,47.5,36.7,29.68,WSW,252,0.0,4.0,66,0.00,,,0.00,VWS V15.00,2017-02-19 10:13:00,
2017-02-19 05:18:00,47.7,36.5,29.68,WSW,248,1.0,4.0,65,0.00,,,0.00,VWS V15.00,2017-02-19 10:18:00,
2017-02-19 05:23:00,47.9,36.7,29.68,WSW,246,2.0,4.0,65,0.00,,,0.00,VWS V15.00,2017-02-19 10:23:00,
2017-02-19 05:28:00,48.1,36.5,29.68,WSW,258,2.0,4.0,64,0.00,,,0.00,VWS V15.00,2017-02-19 10:28:00,
2017-02-19 05:30:00,48.2,36.6,29.68,West,270,0.0,6.0,64,0.00,,CLR,0.00,VWS V15.00,2017-02-19 10:30:00,
2017-02-19 05:33:00,48.3,36.7,29.69,WNW,283,0.0,4.0,64,0.00,,,0.00,VWS V15.00,2017-02-19 10:33:00,
2017-02-19 05:38:00,48.5,36.5,29.69,West,273,0.0,4.0,63,0.00,,,0.00,VWS V15.00,2017-02-19 10:38:00,
2017-02-19 05:43:00,48.5,36.5,29.69,West,278,1.0,4.0,63,0.00,,,0.00,VWS V15.00,2017-02-19 10:43:00,
2017-02-19 05:48:00,48.4,36.4,29.69,West,270,1.0,4.0,63,0.00,,,0.00,VWS V15.00,2017-02-19 10:48:00,
2017-02-19 05:53:00,48.3,36.3,29.69,West,270,0.0,4.0,63,0.00,,,0.00,VWS V15.00,2017-02-19 10:53:00,
2017-02-19 05:58:00,48.1,36.5,29.69,West,271,0.0,4.0,64,0.00,,,0.00,VWS V15.00,2017-02-19 10:58:00,
2017-02-19 06:00:00,48.0,36.4,29.70,West,259,1.0,4.0,64,0.00,,CLR,0.00,VWS V15.00,2017-02-19 11:00:00,
2017-02-19 06:03:00,47.9,36.3,29.70,West,273,0.0,2.0,64,0.00,,,0.00,VWS V15.00,2017-02-19 11:03:00,
2017-02-19 06:08:00,47.8,36.6,29.70,West,271,0.0,3.0,65,0.00,,,0.00,VWS V15.00,2017-02-19 11:08:00,
2017-02-19 06:13:00,47.6,36.4,29.70,West,267,0.0,6.0,65,0.00,,,0.00,VWS V15.00,2017-02-19 11:13:00,
2017-02-19 06:18:00,47.6,36.4,29.70,West,271,1.0,6.0,65,0.00,,,0.00,VWS V15.00,2017-02-19 11:18:00,
2017-02-19 06:23:00,47.5,36.3,29.70,West,275,1.0,6.0,65,0.00,,,0.00,VWS V15.00,2017-02-19 11:23:00,
2017-02-19 06:28:00,47.4,36.2,29.70,West,275,0.0,6.0,65,0.00,,,0.00,VWS V15.00,2017-02-19 11:28:00,
2017-02-19 06:30:00,47.3,36.5,29.70,West,275,0.0,6.0,66,0.00,,CLR,0.00,VWS V15.00,2017-02-19 11:30:00,
2017-02-19 06:33:00,47.3,36.5,29.70,West,275,0.0,0.0,66,0.00,,,0.00,VWS V15.00,2017-02-19 11:33:00,
2017-02-19 06:38:00,47.2,36.4,29.70,West,275,0.0,0.0,66,0.00,,,0.00,VWS V15.00,2017-02-19 11:38:00,
2017-02-19 06:43:00,47.0,36.6,29.71,West,275,0.0,0.0,67,0.00,,,0.00,VWS V15.00,2017-02-19 11:43:00,
2017-02-19 06:48:00,46.9,36.5,29.71,West,275,0.0,2.0,67,0.00,,,0.00,VWS V15.00,2017-02-19 11:48:00,
2017-02-19 06:53:00,46.9,36.5,29.71,West,275,0.0,2.0,67,0.00,,,0.00,VWS V15.00,2017-02-19 11:53:00,
2017-02-19 06:58:00,46.9,36.5,29.71,West,275,0.0,2.0,67,0.00,,,0.00,VWS V15.00,2017-02-19 11:58:00,
2017-02-19 07:00:00,47.0,36.6,29.71,West,275,0.0,2.0,67,0.00,,CLR,0.00,VWS V15.00,2017-02-19 12:00:00,
2017-02-19 07:03:00,47.1,36.7,29.71,West,275,0.0,0.0,67,0.00,,,0.00,VWS V15.00,2017-02-19 12:03:00,
2017-02-19 07:08:00,47.1,36.7,29.71,West,276,0.0,0.0,67,0.00,,,0.00,VWS V15.00,2017-02-19 12:08:00,
2017-02-19 07:13:00,47.2,36.8,29.71,West,276,0.0,0.0,67,0.00,,,0.00,VWS V15.00,2017-02-19 12:13:00,
2017-02-19 07:18:00,47.4,37.0,29.71,West,276,0.0,0.0,67,0.00,,,0.00,VWS V15.00,2017-02-19 12:18:00,
2017-02-19 07:23:00,47.8,37.4,29.71,WNW,284,0.0,2.0,67,0.00,,,0.00,VWS V15.00,2017-02-19 12:23:00,
2017-02-19 07:28:00,48.2,37.4,29.71,WNW,283,0.0,2.0,66,0.00,,,0.00,VWS V15.00,2017-02-19 12:28:00,
2017-02-19 07:30:00,48.4,37.6,29.71,West,281,0.0,2.0,66,0.00,,CLR,0.00,VWS V15.00,2017-02-19 12:30:00,
2017-02-19 07:33:00,48.7,37.5,29.71,West,281,1.0,3.0,65,0.00,,,0.00,VWS V15.00,2017-02-19 12:33:00,
2017-02-19 07:38:00,49.2,38.0,29.71,West,279,0.0,3.0,65,0.00,,,0.00,VWS V15.00,2017-02-19 12:38:00,
2017-02-19 07:43:00,49.7,38.0,29.72,NW,304,0.0,3.0,64,0.00,,CLR,0.00,VWS V15.00,2017-02-19 12:43:00,
2017-02-19 07:48:00,50.5,38.4,29.71,West,269,0.0,7.0,63,0.00,,CLR,0.00,VWS V15.00,2017-02-19 12:48:00,
2017-02-19 07:53:00,51.2,38.6,29.71,West,275,1.0,7.0,62,0.00,,CLR,0.00,VWS V15.00,2017-02-19 12:53:00,
2017-02-19 07:58:00,51.9,38.9,29.71,WNW,295,1.0,8.0,61,0.00,,CLR,0.00,VWS V15.00,2017-02-19 12:58:00,
2017-02-19 08:00:00,52.2,38.8,29.71,WNW,286,0.0,8.0,60,0.00,,CLR,0.00,VWS V15.00,2017-02-19 13:00:00,
2017-02-19 08:03:00,52.5,39.0,29.71,West,263,1.0,3.0,60,0.00,,CLR,0.00,VWS V15.00,2017-02-19 13:03:00,
2017-02-19 08:08:00,53.2,39.3,29.71,West,279,1.0,10.0,59,0.00,,CLR,0.00,VWS V15.00,2017-02-19 13:08:00,
2017-02-19 08:13:00,53.6,39.2,29.71,WNW,285,0.0,10.0,58,0.00,,CLR,0.00,VWS V15.00,2017-02-19 13:13:00,
2017-02-19 08:18:00,53.9,39.5,29.71,WNW,283,2.0,10.0,58,0.00,,CLR,0.00,VWS V15.00,2017-02-19 13:18:00,
2017-02-19 08:23:00,54.2,39.3,29.72,WNW,293,4.0,10.0,57,0.00,,CLR,0.00,VWS V15.00,2017-02-19 13:23:00,
2017-02-19 08:28:00,54.4,39.0,29.72,NW,305,3.0,16.0,56,0.00,,CLR,0.00,VWS V15.00,2017-02-19 13:28:00,
2017-02-19 08:30:00,54.6,39.2,29.72,West,275,1.0,16.0,56,0.00,,CLR,0.00,VWS V15.00,2017-02-19 13:30:00,
2017-02-19 08:33:00,54.6,39.2,29.72,West,264,8.0,8.0,56,0.00,,CLR,0.00,VWS V15.00,2017-02-19 13:33:00,
2017-02-19 08:38:00,54.7,39.3,29.72,NW,304,3.0,13.0,56,0.00,,CLR,0.00,VWS V15.00,2017-02-19 13:38:00,
2017-02-19 08:43:00,54.9,39.0,29.72,WNW,297,3.0,13.0,55,0.00,,CLR,0.00,VWS V15.00,2017-02-19 13:43:00,
2017-02-19 08:48:00,55.1,39.2,29.72,West,268,2.0,13.0,55,0.00,,CLR,0.00,VWS V15.00,2017-02-19 13:48:00,
2017-02-19 08:53:00,55.3,39.4,29.72,NW,309,2.0,13.0,55,0.00,,CLR,0.00,VWS V15.00,2017-02-19 13:53:00,
2017-02-19 08:58:00,55.4,39.0,29.72,WSW,253,2.0,13.0,54,0.00,,CLR,0.00,VWS V15.00,2017-02-19 13:58:00,
2017-02-19 09:00:00,55.4,39.0,29.72,WNW,289,2.0,15.0,54,0.00,,CLR,0.00,VWS V15.00,2017-02-19 14:00:00,
2017-02-19 09:03:00,55.4,39.0,29.72,NW,306,2.0,11.0,54,0.00,,CLR,0.00,VWS V15.00,2017-02-19 14:03:00,
2017-02-19 09:08:00,55.6,38.8,29.72,WNW,284,2.0,12.0,53,0.00,,CLR,0.00,VWS V15.00,2017-02-19 14:08:00,
2017-02-19 09:13:00,55.7,38.8,29.73,West,265,2.0,12.0,53,0.00,,CLR,0.00,VWS V15.00,2017-02-19 14:13:00,
2017-02-19 09:18:00,56.0,39.1,29.73,West,272,7.0,12.0,53,0.00,,CLR,0.00,VWS V15.00,2017-02-19 14:18:00,
2017-02-19 09:28:00,56.3,38.9,29.73,West,279,10.0,12.0,52,0.00,,CLR,0.00,VWS V15.00,2017-02-19 14:28:00,
2017-02-19 09:30:00,56.3,38.9,29.73,WNW,290,1.0,13.0,52,0.00,,CLR,0.00,VWS V15.00,2017-02-19 14:30:00,
2017-02-19 09:33:00,56.4,39.5,29.73,WSW,251,3.0,7.0,53,0.00,,CLR,0.00,VWS V15.00,2017-02-19 14:33:00,
2017-02-19 09:38:00,56.5,39.1,29.73,WNW,284,1.0,9.0,52,0.00,,CLR,0.00,VWS V15.00,2017-02-19 14:38:00,
2017-02-19 09:43:00,56.6,38.7,29.73,WNW,296,3.0,3.0,51,0.00,,CLR,0.00,VWS V15.00,2017-02-19 14:43:00,
2017-02-19 09:48:00,56.8,38.9,29.73,WNW,290,2.0,11.0,51,0.00,,CLR,0.00,VWS V15.00,2017-02-19 14:48:00,
2017-02-19 09:53:00,57.0,39.1,29.73,West,275,2.0,14.0,51,0.00,,CLR,0.00,VWS V15.00,2017-02-19 14:53:00,
2017-02-19 09:58:00,56.8,38.4,29.73,WSW,249,2.0,14.0,50,0.00,,CLR,0.00,VWS V15.00,2017-02-19 14:58:00,
2017-02-19 10:03:00,56.7,38.3,29.74,NW,323,0.0,11.0,50,0.00,,CLR,0.00,VWS V15.00,2017-02-19 15:03:00,
2017-02-19 10:08:00,56.6,38.2,29.74,West,270,1.0,13.0,50,0.00,,CLR,0.00,VWS V15.00,2017-02-19 15:08:00,
2017-02-19 10:13:00,56.4,38.5,29.74,WNW,301,1.0,13.0,51,0.00,,CLR,0.00,VWS V15.00,2017-02-19 15:13:00,
2017-02-19 10:18:00,56.7,38.8,29.74,West,272,2.0,13.0,51,0.00,,CLR,0.00,VWS V15.00,2017-02-19 15:18:00,
2017-02-19 10:23:00,56.4,38.5,29.74,West,275,1.0,13.0,51,0.00,,CLR,0.00,VWS V15.00,2017-02-19 15:23:00,
2017-02-19 10:28:00,56.4,39.0,29.74,West,265,8.0,13.0,52,0.00,,CLR,0.00,VWS V15.00,2017-02-19 15:28:00,
2017-02-19 10:33:00,56.2,38.3,29.74,WNW,299,3.0,12.0,51,0.00,,CLR,0.00,VWS V15.00,2017-02-19 15:33:00,
2017-02-19 10:38:00,56.0,38.6,29.74,WNW,284,2.0,12.0,52,0.00,,CLR,0.00,VWS V15.00,2017-02-19 15:38:00,
2017-02-19 10:43:00,55.9,38.5,29.74,West,276,2.0,12.0,52,0.00,,CLR,0.00,VWS V15.00,2017-02-19 15:43:00,
2017-02-19 10:48:00,56.1,38.7,29.74,WSW,239,1.0,12.0,52,0.00,,CLR,0.00,VWS V15.00,2017-02-19 15:48:00,
2017-02-19 10:53:00,56.3,38.9,29.74,WNW,292,2.0,12.0,52,0.00,,CLR,0.00,VWS V15.00,2017-02-19 15:53:00,
2017-02-19 10:58:00,56.4,39.0,29.74,West,277,1.0,12.0,52,0.00,,CLR,0.00,VWS V15.00,2017-02-19 15:58:00,
2017-02-19 11:03:00,56.6,38.7,29.75,West,259,2.0,3.0,51,0.00,,CLR,0.00,VWS V15.00,2017-02-19 16:03:00,
2017-02-19 11:08:00,56.8,38.9,29.75,WSW,257,1.0,7.0,51,0.00,,CLR,0.00,VWS V15.00,2017-02-19 16:08:00,
2017-02-19 11:13:00,57.1,38.7,29.75,WNW,299,8.0,8.0,50,0.00,,CLR,0.00,VWS V15.00,2017-02-19 16:13:00,
2017-02-19 11:18:00,57.0,38.6,29.74,West,274,3.0,12.0,50,0.00,,CLR,0.00,VWS V15.00,2017-02-19 16:18:00,
2017-02-19 11:23:00,56.9,39.0,29.74,WNW,294,4.0,12.0,51,0.00,,CLR,0.00,VWS V15.00,2017-02-19 16:23:00,
2017-02-19 11:28:00,56.7,38.8,29.74,WNW,293,2.0,12.0,51,0.00,,CLR,0.00,VWS V15.00,2017-02-19 16:28:00,
2017-02-19 11:33:00,56.4,38.5,29.74,West,259,2.0,10.0,51,0.00,,CLR,0.00,VWS V15.00,2017-02-19 16:33:00,
2017-02-19 11:38:00,56.2,38.8,29.74,West,275,4.0,10.0,52,0.00,,CLR,0.00,VWS V15.00,2017-02-19 16:38:00,
2017-02-19 11:43:00,56.1,38.7,29.74,WNW,284,3.0,10.0,52,0.00,,CLR,0.00,VWS V15.00,2017-02-19 16:43:00,
2017-02-19 11:48:00,56.0,38.6,29.73,WNW,297,2.0,11.0,52,0.00,,CLR,0.00,VWS V15.00,2017-02-19 16:48:00,
2017-02-19 11:53:00,56.1,38.7,29.74,West,266,1.0,11.0,52,0.00,,CLR,0.00,VWS V15.00,2017-02-19 16:53:00,
2017-02-19 11:58:00,56.5,39.1,29.73,West,279,6.0,11.0,52,0.00,,CLR,0.00,VWS V15.00,2017-02-19 16:58:00,
2017-02-19 12:03:00,57.1,39.2,29.73,West,265,1.0,12.0,51,0.00,,CLR,0.00,VWS V15.00,2017-02-19 17:03:00,
2017-02-19 12:08:00,57.4,39.4,29.73,NW,312,2.0,12.0,51,0.00,,CLR,0.00,VWS V15.00,2017-02-19 17:08:00,
2017-02-19 12:13:00,57.7,38.7,29.73,West,272,6.0,13.0,49,0.00,,CLR,0.00,VWS V15.00,2017-02-19 17:13:00,
2017-02-19 12:18:00,57.8,38.8,29.73,NNW,327,6.0,13.0,49,0.00,,CLR,0.00,VWS V15.00,2017-02-19 17:18:00,
2017-02-19 12:23:00,58.1,38.5,29.73,West,277,2.0,17.0,48,0.00,,CLR,0.00,VWS V15.00,2017-02-19 17:23:00,
2017-02-19 12:28:00,58.2,38.1,29.73,West,271,2.0,17.0,47,0.00,,CLR,0.00,VWS V15.00,2017-02-19 17:28:00,
2017-02-19 12:33:00,58.2,38.6,29.73,WNW,300,4.0,13.0,48,0.00,,CLR,0.00,VWS V15.00,2017-02-19 17:33:00,
2017-02-19 12:38:00,58.6,38.5,29.73,West,265,2.0,14.0,47,0.00,,CLR,0.00,VWS V15.00,2017-02-19 17:38:00,
2017-02-19 12:43:00,58.8,39.2,29.73,West,272,9.0,14.0,48,0.00,,CLR,0.00,VWS V15.00,2017-02-19 17:43:00,
2017-02-19 12:48:00,58.9,38.7,29.73,West,271,8.0,14.0,47,0.00,,CLR,0.00,VWS V15.00,2017-02-19 17:48:00,
2017-02-19 12:53:00,58.9,38.2,29.73,WSW,241,2.0,14.0,46,0.00,,CLR,0.00,VWS V15.00,2017-02-19 17:53:00,
2017-02-19 12:58:00,58.8,38.6,29.72,West,262,2.0,14.0,47,0.00,,CLR,0.00,VWS V15.00,2017-02-19 17:58:00,
2017-02-19 13:03:00,58.9,38.2,29.73,West,260,4.0,10.0,46,0.00,,CLR,0.00,VWS V15.00,2017-02-19 18:03:00,
2017-02-19 13:08:00,59.2,38.5,29.72,West,262,1.0,13.0,46,0.00,,CLR,0.00,VWS V15.00,2017-02-19 18:08:00,
2017-02-19 13:13:00,59.5,38.7,29.72,West,269,10.0,14.0,46,0.00,,CLR,0.00,VWS V15.00,2017-02-19 18:13:00,
2017-02-19 13:18:00,59.8,38.4,29.72,West,261,10.0,14.0,45,0.00,,CLR,0.00,VWS V15.00,2017-02-19 18:18:00,
2017-02-19 13:23:00,60.0,38.6,29.72,WNW,288,4.0,14.0,45,0.00,,CLR,0.00,VWS V15.00,2017-02-19 18:23:00,
2017-02-19 13:28:00,60.0,38.0,29.72,WSW,252,5.0,14.0,44,0.00,,CLR,0.00,VWS V15.00,2017-02-19 18:28:00,
2017-02-19 13:33:00,60.2,37.0,29.72,West,277,8.0,8.0,42,0.00,,CLR,0.00,VWS V15.00,2017-02-19 18:33:00,
2017-02-19 13:38:00,60.2,37.0,29.72,SW,232,0.0,14.0,42,0.00,,CLR,0.00,VWS V15.00,2017-02-19 18:38:00,
2017-02-19 13:43:00,60.3,37.1,29.71,West,261,3.0,15.0,42,0.00,,CLR,0.00,VWS V15.00,2017-02-19 18:43:00,
2017-02-19 13:48:00,60.9,37.1,29.72,West,277,2.0,15.0,41,0.00,,CLR,0.00,VWS V15.00,2017-02-19 18:48:00,
2017-02-19 13:52:00,61.3,38.0,29.72,WSW,251,1.0,15.0,42,0.00,,CLR,0.00,VWS V15.00,2017-02-19 18:52:00,
2017-02-19 13:57:00,61.1,37.9,29.72,West,279,2.0,15.0,42,0.00,,CLR,0.00,VWS V15.00,2017-02-19 18:57:00,
2017-02-19 14:02:00,61.8,36.6,29.72,WNW,296,4.0,14.0,39,0.00,,CLR,0.00,VWS V15.00,2017-02-19 19:02:00,
2017-02-19 14:07:00,61.9,36.7,29.72,West,267,8.0,14.0,39,0.00,,CLR,0.00,VWS V15.00,2017-02-19 19:07:00,
2017-02-19 14:12:00,62.4,36.5,29.72,WSW,258,0.0,14.0,38,0.00,,CLR,0.00,VWS V15.00,2017-02-19 19:12:00,
2017-02-19 14:17:00,62.5,35.9,29.72,West,280,9.0,14.0,37,0.00,,CLR,0.00,VWS V15.00,2017-02-19 19:17:00,
2017-02-19 14:27:00,62.3,35.7,29.72,SSW,199,0.0,14.0,37,0.00,,CLR,0.00,VWS V15.00,2017-02-19 19:27:00,
2017-02-19 14:32:00,62.4,35.8,29.72,WNW,294,3.0,7.0,37,0.00,,CLR,0.00,VWS V15.00,2017-02-19 19:32:00,
2017-02-19 14:37:00,62.3,35.7,29.72,WSW,242,2.0,13.0,37,0.00,,CLR,0.00,VWS V15.00,2017-02-19 19:37:00,
2017-02-19 14:42:00,62.3,35.7,29.72,SW,225,3.0,13.0,37,0.00,,,0.00,VWS V15.00,2017-02-19 19:42:00,
2017-02-19 14:52:00,62.3,35.0,29.72,WSW,246,2.0,15.0,36,0.00,,,0.00,VWS V15.00,2017-02-19 19:52:00,
2017-02-19 14:57:00,62.3,34.3,29.72,West,273,1.0,15.0,35,0.00,,,0.00,VWS V15.00,2017-02-19 19:57:00,
2017-02-19 15:02:00,62.4,35.1,29.72,West,266,6.0,9.0,36,0.00,,,0.00,VWS V15.00,2017-02-19 20:02:00,
2017-02-19 15:07:00,62.8,34.8,29.72,WNW,296,1.0,11.0,35,0.00,,,0.00,VWS V15.00,2017-02-19 20:07:00,
2017-02-19 15:12:00,63.1,35.0,29.72,WSW,254,12.0,13.0,35,0.00,,,0.00,VWS V15.00,2017-02-19 20:12:00,
2017-02-19 15:17:00,63.1,34.3,29.72,WSW,256,9.0,13.0,34,0.00,,,0.00,VWS V15.00,2017-02-19 20:17:00,
2017-02-19 15:22:00,62.6,33.9,29.73,NW,307,5.0,16.0,34,0.00,,,0.00,VWS V15.00,2017-02-19 20:22:00,
2017-02-19 15:27:00,62.3,33.6,29.73,WSW,258,3.0,16.0,34,0.00,,,0.00,VWS V15.00,2017-02-19 20:27:00,
2017-02-19 15:32:00,62.4,33.7,29.73,NW,319,8.0,16.0,34,0.00,,,0.00,VWS V15.00,2017-02-19 20:32:00,
2017-02-19 15:37:00,62.3,33.6,29.73,SW,233,6.0,17.0,34,0.00,,,0.00,VWS V15.00,2017-02-19 20:37:00,
2017-02-19 15:42:00,61.7,33.8,29.73,WNW,301,4.0,17.0,35,0.00,,,0.00,VWS V15.00,2017-02-19 20:42:00,
2017-02-19 15:47:00,61.3,33.4,29.73,WNW,294,0.0,17.0,35,0.00,,,0.00,VWS V15.00,2017-02-19 20:47:00,
2017-02-19 15:52:00,61.1,34.0,29.73,WNW,292,0.0,17.0,36,0.00,,,0.00,VWS V15.00,2017-02-19 20:52:00,
2017-02-19 15:57:00,60.9,34.5,29.73,WSW,258,1.0,17.0,37,0.00,,,0.00,VWS V15.00,2017-02-19 20:57:00,
2017-02-19 16:02:00,60.8,34.4,29.73,WSW,255,0.0,4.0,37,0.00,,,0.00,VWS V15.00,2017-02-19 21:02:00,
2017-02-19 16:07:00,60.7,34.3,29.74,WNW,299,0.0,4.0,37,0.00,,,0.00,VWS V15.00,2017-02-19 21:07:00,
2017-02-19 16:12:00,60.5,34.1,29.74,WNW,287,1.0,8.0,37,0.00,,,0.00,VWS V15.00,2017-02-19 21:12:00,
2017-02-19 16:17:00,60.4,34.0,29.74,WSW,255,1.0,10.0,37,0.00,,,0.00,VWS V15.00,2017-02-19 21:17:00,
2017-02-19 16:22:00,60.0,34.3,29.74,WSW,256,0.0,10.0,38,0.00,,,0.00,VWS V15.00,2017-02-19 21:22:00,
2017-02-19 16:27:00,59.8,34.2,29.75,WSW,247,1.0,10.0,38,0.00,,,0.00,VWS V15.00,2017-02-19 21:27:00,
2017-02-19 16:32:00,59.7,34.7,29.75,WNW,302,3.0,7.0,39,0.00,,,0.00,VWS V15.00,2017-02-19 21:32:00,
2017-02-19 16:37:00,59.6,34.6,29.76,WSW,240,1.0,8.0,39,0.00,,,0.00,VWS V15.00,2017-02-19 21:37:00,
2017-02-19 16:42:00,59.8,34.8,29.76,WSW,244,0.0,8.0,39,0.00,,,0.00,VWS V15.00,2017-02-19 21:42:00,
2017-02-19 16:47:00,59.8,34.8,29.76,WNW,288,1.0,8.0,39,0.00,,,0.00,VWS V15.00,2017-02-19 21:47:00,
2017-02-19 16:52:00,59.8,34.8,29.76,WSW,246,0.0,8.0,39,0.00,,,0.00,VWS V15.00,2017-02-19 21:52:00,
2017-02-19 16:57:00,59.7,34.7,29.77,West,277,1.0,8.0,39,0.00,,,0.00,VWS V15.00,2017-02-19 21:57:00,
2017-02-19 17:02:00,59.6,34.6,29.77,WNW,284,0.0,3.0,39,0.00,,,0.00,VWS V15.00,2017-02-19 22:02:00,
2017-02-19 17:07:00,59.3,34.4,29.77,West,266,3.0,3.0,39,0.00,,,0.00,VWS V15.00,2017-02-19 22:07:00,
2017-02-19 17:12:00,58.9,34.6,29.78,West,275,1.0,3.0,40,0.00,,,0.00,VWS V15.00,2017-02-19 22:12:00,
2017-02-19 17:17:00,58.5,34.9,29.78,West,279,1.0,3.0,41,0.00,,,0.00,VWS V15.00,2017-02-19 22:17:00,
2017-02-19 17:22:00,58.1,34.5,29.78,West,268,1.0,3.0,41,0.00,,,0.00,VWS V15.00,2017-02-19 22:22:00,
2017-02-19 17:27:00,57.6,34.7,29.79,West,272,1.0,3.0,42,0.00,,,0.00,VWS V15.00,2017-02-19 22:27:00,
2017-02-19 17:32:00,57.1,33.6,29.79,WSW,257,1.0,4.0,41,0.00,,,0.00,VWS V15.00,2017-02-19 22:32:00,
2017-02-19 17:37:00,56.9,34.1,29.79,West,261,1.0,4.0,42,0.00,,,0.00,VWS V15.00,2017-02-19 22:37:00,
2017-02-19 17:42:00,56.8,34.0,29.80,WNW,285,2.0,4.0,42,0.00,,CLR,0.00,VWS V15.00,2017-02-19 22:42:00,
2017-02-19 17:47:00,56.7,33.9,29.80,West,280,0.0,4.0,42,0.00,,CLR,0.00,VWS V15.00,2017-02-19 22:47:00,
2017-02-19 17:52:00,56.5,33.7,29.80,West,280,0.0,4.0,42,0.00,,CLR,0.00,VWS V15.00,2017-02-19 22:52:00,
2017-02-19 17:57:00,56.1,33.9,29.80,West,280,0.0,4.0,43,0.00,,CLR,0.00,VWS V15.00,2017-02-19 22:57:00,
2017-02-19 18:02:00,55.4,33.9,29.81,West,264,0.0,1.0,44,0.00,,CLR,0.00,VWS V15.00,2017-02-19 23:02:00,
2017-02-19 18:07:00,54.9,34.0,29.81,West,275,0.0,2.0,45,0.00,,CLR,0.00,VWS V15.00,2017-02-19 23:07:00,
2017-02-19 18:12:00,54.6,33.7,29.81,West,281,0.0,2.0,45,0.00,,CLR,0.00,VWS V15.00,2017-02-19 23:12:00,